FW8013 Weather Reports


time (UTC)temp
C
wind
direction
speed
KPH
gust
KPH
rain 1hr
cm
rain 24hr
cm
rain mn
cm
humidity
%
barometer
mb
20260510153055 19 333 0.0 8.0 0.00 0.81 0.00 83 1013.5
20260510151551 18 300 1.6 11.3 0.00 0.81 0.00 81 1013.4
20260510150119 17 0 3.2 11.3 0.00 0.81 0.00 83 1013.5
20260510144554 17 284 1.6 8.0 0.00 0.81 0.00 86 1013.3
20260510143053 16 0 3.2 9.7 0.00 0.81 0.00 87 1013.2
20260510141551 15 303 1.6 11.3 0.00 0.81 0.00 89 1013.4
20260510140050 15 261 3.2 8.0 0.00 0.81 0.00 90 1013.5
20260510134601 14 0 1.6 6.4 0.00 0.81 0.00 93 1013.3
20260510133058 14 290 0.0 6.4 0.00 0.81 0.00 97 1013.2
20260510131553 13 0 1.6 6.4 0.00 0.81 0.00 97 1013.4
20260510130056 12 0 0.0 6.4 0.00 0.81 0.00 97 1013.5
20260510124604 12 301 0.0 3.2 0.00 0.81 0.00 98 1013.5
20260510123100 12 22 0.0 3.2 0.00 0.81 0.00 98 1013.0
20260510121552 11 0 0.0 3.2 0.00 0.81 0.00 97 1013.0
20260510120054 11 0 0.0 1.6 0.00 0.81 0.00 98 1012.7
20260510114555 11 329 1.6 4.8 0.00 0.81 0.00 98 1012.5
20260510113054 10 0 0.0 3.2 0.00 0.81 0.00 97 1012.1
20260510111603 10 0 0.0 0.0 0.00 0.81 0.00 97 1012.1
20260510110053 10 0 0.0 0.0 0.00 0.81 0.00 97 1012.2
20260510104553 10 0 0.0 0.0 0.00 0.81 0.00 97 1012.0
20260510103103 10 0 0.0 3.2 0.00 0.81 0.00 97 1012.0
20260510101559 10 0 0.0 0.0 0.00 0.81 0.00 97 1011.8
20260510100054 10 0 0.0 1.6 0.00 0.81 0.00 97 1011.7
20260510094605 10 0 0.0 3.2 0.00 0.81 0.00 97 1011.7
20260510093119 10 0 0.0 3.2 0.00 0.81 0.00 97 1011.7
20260510091557 10 0 1.6 4.8 0.00 0.81 0.00 97 1011.7
20260510090055 10 0 0.0 3.2 0.00 0.81 0.00 97 1011.8
20260510084552 10 0 0.0 3.2 0.00 0.81 0.00 97 1011.9
20260510083104 10 53 0.0 4.8 0.00 0.81 0.00 97 1011.8
20260510081548 10 0 1.6 4.8 0.00 0.81 0.00 97 1012.0
20260510080056 10 0 1.6 8.0 0.00 0.81 0.00 96 1011.7
20260510074556 10 0 0.0 1.6 0.00 0.81 0.00 97 1011.2
20260510073055 10 0 0.0 0.0 0.00 0.81 0.00 97 1011.0
20260510071550 10 0 0.0 3.2 0.00 0.81 0.00 97 1011.1
20260510070053 10 0 0.0 1.6 0.00 0.81 0.00 97 1011.3
20260510064559 10 0 0.0 1.6 0.00 0.81 0.00 97 1011.1
20260510063053 10 0 0.0 1.6 0.00 0.81 0.00 97 1011.4
20260510061555 9 0 0.0 0.0 0.00 0.81 0.00 97 1011.3
20260510060048 9 0 0.0 0.0 0.00 0.81 0.00 96 1011.0
20260510054551 9 0 0.0 0.0 0.00 0.81 0.00 97 1011.1
20260510053055 8 0 0.0 0.0 0.00 0.81 0.00 96 1011.1
20260510051605 8 0 0.0 1.6 0.00 0.81 0.00 96 1011.1
20260510050054 8 0 0.0 0.0 0.00 0.81 0.00 96 1011.3
20260510044601 8 0 0.0 0.0 0.00 0.81 0.00 96 1011.3
20260510043051 8 0 0.0 0.0 0.00 0.81 0.00 96 1011.4
20260510041551 8 0 0.0 1.6 0.00 0.81 0.00 96 1011.3
20260510040056 8 0 0.0 0.0 0.00 0.81 0.00 96 1011.5
20260510034553 8 0 0.0 0.0 0.00 0.81 0.81 95 1011.3
20260510033108 8 0 0.0 0.0 0.00 0.81 0.81 95 1011.2
20260510031551 8 0 0.0 0.0 0.00 0.81 0.81 95 1011.2
20260510024553 8 0 0.0 1.6 0.00 0.81 0.81 95 1010.9
20260510023053 8 0 0.0 0.0 0.00 0.81 0.81 95 1010.9
20260510021600 8 0 0.0 0.0 0.00 0.81 0.81 95 1010.9
20260510020053 8 0 0.0 0.0 0.00 0.81 0.81 94 1011.0
20260510014548 8 0 0.0 0.0 0.00 0.81 0.81 94 1010.9
20260510013051 9 0 0.0 0.0 0.00 0.81 0.81 94 1010.9
20260510011552 9 0 0.0 0.0 0.00 0.81 0.81 94 1011.0
20260510010051 10 0 0.0 0.0 0.00 0.81 0.81 94 1010.8
20260510004553 10 0 0.0 0.0 0.00 0.81 0.81 93 1010.6
20260510003051 10 0 0.0 0.0 0.00 0.81 0.81 93 1010.4
20260510001550 11 0 0.0 0.0 0.00 0.81 0.81 93 1010.3
20260510000049 11 0 0.0 0.0 0.00 0.81 0.81 93 1010.2
20260509234554 11 0 0.0 0.0 0.00 0.81 0.81 92 1010.3
20260509233054 12 0 0.0 1.6 0.00 0.81 0.81 92 1010.0
20260509231552 12 208 0.0 3.2 0.00 0.81 0.81 92 1009.8
20260509230057 12 112 1.6 4.8 0.00 0.81 0.81 92 1009.9
20260509224555 12 107 1.6 6.4 0.00 0.81 0.81 91 1010.1
20260509223054 13 123 3.2 6.4 0.00 0.81 0.81 91 1010.1
20260509221553 13 0 0.0 1.6 0.00 0.81 0.81 92 1009.9
20260509220103 12 0 1.6 6.4 0.00 0.81 0.81 92 1010.0
20260509214600 12 94 0.0 4.8 0.03 0.81 0.81 93 1010.2
20260509213122 12 0 0.0 0.0 0.13 0.81 0.81 93 1010.2
20260509211556 12 0 0.0 3.2 0.25 0.81 0.81 94 1010.2
20260509210107 12 0 0.0 1.6 0.28 0.81 0.81 94 1010.3
20260509204555 11 0 0.0 1.6 0.30 0.79 0.79 93 1010.3
20260509203054 12 0 0.0 1.6 0.25 0.69 0.69 93 1010.3
20260509201559 12 0 0.0 1.6 0.15 0.56 0.56 93 1010.6
20260509200100 12 0 0.0 3.2 0.18 0.53 0.53 93 1010.4
20260509194555 12 0 1.6 4.8 0.18 0.48 0.48 92 1010.9
20260509193052 12 0 0.0 8.0 0.18 0.43 0.43 92 1011.1
20260509191551 12 313 0.0 11.3 0.25 0.41 0.41 93 1011.4
20260509190052 12 0 0.0 9.7 0.28 0.36 0.36 92 1011.4
20260509184554 12 329 0.0 6.4 0.28 0.30 0.30 92 1011.5
20260509183053 12 281 0.0 6.4 0.25 0.25 0.25 91 1011.6
20260509181559 12 0 0.0 3.2 0.15 0.15 0.15 91 1011.7
20260509180050 13 0 0.0 3.2 0.08 0.08 0.08 90 1011.2
20260509174552 13 0 0.0 3.2 0.03 0.03 0.03 88 1011.2
20260509173056 13 0 0.0 6.4 0.00 0.00 0.00 86 1011.4
20260509171553 14 303 1.6 9.7 0.00 0.00 0.00 82 1011.7
20260509170055 15 342 1.6 14.5 0.00 0.00 0.00 78 1011.7
20260509164553 16 250 3.2 12.9 0.00 0.00 0.00 75 1011.5
20260509163054 16 0 1.6 12.9 0.00 0.00 0.00 74 1011.7
20260509161551 16 317 4.8 16.1 0.00 0.00 0.00 71 1011.7
20260509160052 16 319 4.8 17.7 0.00 0.00 0.00 75 1011.8
20260509154556 16 291 3.2 11.3 0.00 0.00 0.00 78 1011.8